Location: Berneck
(48.6036°N, 8.6166°E)
Time: 05:19:11
(UTC+00:00)

Daily predictions for brighter satellites

Satellite Brightness Start Highest point End
(mag) Time Altitude Azimuth Time Altitude Azimuth Time Altitude Azimuth
SL-16 R/B 3.8 03:19:10 29° NE 03:19:12 29° NE 03:24:04 10° ESE
Cosmos 2082 Rocket 3.5 03:23:08 36° ENE 03:23:08 36° ENE 03:26:54 10° NE
USA 234 3.9 03:23:37 10° ENE 03:28:36 44° NNE 03:28:36 44° NNE
Cosmos 1980 Rocket 4.4 03:44:55 13° S 03:44:55 13° S 03:45:31 10° SSE
NOSS 3-1 (C) 3.9 03:52:30 66° NNW 03:53:44 83° NE 04:02:30 10° SE
Cosmos 841 Rocket 4.0 04:00:24 50° SSE 04:01:17 58° ESE 04:06:27 10° NNE
COSMOS 2455 3.1 04:07:00 57° S 04:07:00 57° S 04:11:53 10° SSE
Cosmos 2360 Rocket 3.5 04:09:26 23° N 04:12:10 35° NE 04:17:17 10° ESE
Cosmos 2333 Rocket 3.0 04:11:00 32° N 04:13:18 49° NE 04:18:51 10° SE
ATLAS 3B R/B 4.3 04:14:24 23° NNW 04:17:39 30° NNE 04:24:18 10° ENE
Nadezhda 4 Rocket 4.0 04:11:58 10° S 04:18:17 85° E 04:24:35 10° N
Cosmos 1892 Rocket 4.4 04:18:57 10° SSE 04:23:10 50° E 04:27:26 10° NNE
Cosmos-2242 4.3 04:24:05 18° NNE 04:26:43 37° ENE 04:30:37 10° SE
Cosmos 1898 Rocket 4.0 04:29:28 44° SSW 04:29:28 44° SSW 04:33:20 10° S
Cosmos 2219 Rocket 3.7 04:25:49 16° N 04:29:35 31° NE 04:34:32 10° ESE
COSMO-SKYMED 1 3.0 04:27:21 10° SSE 04:31:22 56° ENE 04:32:40 38° NNE
IRS-1D 3.6 04:28:42 10° NNE 04:33:43 73° ESE 04:38:48 10° S
Cosmos 2322 Rocket 2.8 04:32:26 24° NNW 04:35:45 54° NE 04:41:18 10° SE
Orbus 7S? 4.1 04:48:21 31° NE 04:48:21 31° NE 04:50:18 10° E
Cosmos 1937 Rocket 3.6 04:49:25 49° W 04:49:32 49° WSW 04:54:27 10° S
Cosmos 858 Rocket 4.4 04:49:23 45° NW 04:50:52 66° WSW 04:56:00 10° S
BREEZE M DEB (TANK) 4.3 04:50:05 10° S 04:51:28 14° SE 04:53:20 10° E
USA 59 Rocket 1.5 04:54:18 22° SSW 04:54:18 22° SSW 04:57:06 10° S
BREEZE-M DEB (TANK) 4.1 04:55:04 21° ESE 04:55:04 21° ESE 04:55:54 10° ESE
Meteor 2-3 Rocket 3.6 04:48:22 10° SSW 04:54:06 78° WNW 04:59:48 10° N
Meteor 1-26 Rocket 4.2 04:49:35 10° N 04:55:08 82° ENE 05:00:51 10° SSE
Cosmos 1484 Rocket 4.0 04:52:40 10° NNE 04:55:53 36° E 04:59:01 10° SSE
Meteor 2-20 Rocket 4.4 04:51:13 10° N 04:57:01 77° E 05:02:43 10° SSE
Cosmos 2058 Rocket 3.0 04:54:41 19° N 04:57:53 86° E 05:02:17 10° S
SKYMED 2 3.7 04:55:33 10° S 04:59:46 51° W 05:00:14 49° WNW
COSMOS 2406 3.1 04:55:16 15° SW 05:00:00 65° WNW 05:05:41 10° NNE
NOSS 3-1 (A) 4.0 04:57:15 26° NW 05:01:47 84° SW 05:10:38 10° SE
SL-16 R/B 2.2 05:01:03 31° NW 05:03:41 61° WSW 05:09:15 10° S
Cosmos 2082 Rocket 2.7 05:05:01 35° WNW 05:05:46 36° NW 05:10:57 10° NNE
CZ-4 R/B 3.6 05:02:34 10° N 05:07:11 65° WNW 05:11:44 10° SSW
SeaSat 1 4.1 05:05:24 10° N 05:07:30 17° NNW 05:07:30 17° NNW
Cosmos 1627 Rocket 4.3 05:02:47 10° SSW 05:08:53 77° W 05:15:05 10° N
USA 234 3.9 05:06:07 10° ENE 05:12:14 44° N 05:15:57 23° NW
BREEZE-M DEB (TANK) 2.5 05:12:01 62° W 05:12:25 87° NNW 05:14:41 10° ENE
Okean 1 2.8 05:11:24 28° NNW 05:13:11 81° W 05:16:44 10° S
Helios 1A Rocket 2.5 05:12:30 10° S 05:15:44 48° WSW 05:15:55 47° W
CZ-2C R/B 4.5 05:12:32 10° NNW 05:13:16 13° NNW 05:13:16 13° NNW
Cosmos 1814 Rocket 4.5 05:11:20 10° S 05:16:29 65° ESE 05:21:45 10° NNE
NOAA 12 4.1 05:12:19 10° N 05:17:30 56° WNW 05:22:37 10° SW
DMSP B5D1-3 4.5 05:14:16 10° SSE 05:19:23 89° WSW 05:24:32 10° NNW
Cosmos 2285 Rocket 4.0 05:17:14 10° NNW 05:23:39 88° ENE 05:30:05 10° SSE
BREEZE-M DEB (TANK) 2.6 05:23:26 42° WNW 05:24:14 75° N 05:29:11 10° E
BREEZE-M DEB (TANK) 3.1 05:24:35 27° WSW 05:26:05 50° S 05:32:34 10° ESE
Cosmos 2278 4.0 05:24:16 21° NW 05:27:41 46° WSW 05:33:02 10° S
IRIDIUM 103 4.4 05:24:16 10° S 05:29:29 82° E 05:34:44 10° N
SL-4 R/B 1.2 05:28:33 37° WNW 05:29:41 87° SSW 05:32:52 10° ESE
Cosmos 2151 4.3 05:27:35 10° SSE 05:31:25 41° E 05:35:18 10° NNE
Cosmos 1758 Rocket 3.8 05:28:46 10° S 05:33:11 75° E 05:37:34 10° NNE
Cosmos 2026 Rocket 4.1 05:28:17 10° SSW 05:34:06 49° WNW 05:40:03 10° N
NOSS 8 (A) 4.0 05:33:10 33° NW 05:34:20 74° SW 05:37:34 10° SE
Cosmos 2221 3.0 05:31:27 10° N 05:35:33 58° ENE 05:39:38 10° SSE
Thor Agena Rocket 4.1 05:34:40 10° NNE 05:39:42 60° ESE 05:44:39 10° S
Cosmos 405 Rocket 2.1 05:39:39 10° SSW 05:42:54 74° WNW 05:46:11 10° N
Cosmos 841 Rocket 4.5 05:40:31 16° W 05:43:27 26° NW 05:47:49 10° N
Cosmos 1707 3.4 05:43:08 10° N 05:46:10 42° ENE 05:49:09 10° SSE
IRIDIUM 106 4.3 05:42:37 10° S 05:47:49 71° W 05:53:03 10° N
Cosmos 158 Rocket 4.0 05:43:15 10° SSW 05:48:35 85° WNW 05:53:51 10° NNE
KORONAS-FOTON 4.1 05:50:27 10° N 05:53:47 56° ENE 05:57:05 10° SSE
Cosmos 1626 Rocket 3.6 05:51:52 10° SSW 05:56:12 55° WNW 06:00:32 10° N
Cosmos 2360 Rocket 2.5 05:51:12 11° NW 05:56:18 47° WSW 06:01:37 10° S
S3M 4.2 05:50:11 10° N 05:56:25 76° E 06:02:32 10° SSE
Cosmos 2333 Rocket 3.0 05:53:03 13° NW 05:57:24 32° WSW 06:02:25 10° SSW
Cosmos 1553 Rocket 4.2 05:51:44 10° NNW 05:57:57 55° W 06:04:10 10° SSW
SMAP 3.1 05:55:22 10° NNE 06:00:04 87° ESE 06:04:44 10° SSW
Cosmos 1833 4.2 05:54:56 10° SSW 06:00:35 85° WNW 06:06:20 10° NNE
Cosmos 1092 Rocket 4.5 05:55:24 10° SW 06:01:09 37° WNW 06:06:52 10° N
SL-08 R/B 4.3 05:58:40 10° SE 06:03:04 46° ENE 06:07:34 10° N
Cosmos-2242 4.2 06:00:27 11° NW 06:03:31 22° W 06:06:46 10° SW
Cosmos 1842 3.7 06:01:08 10° N 06:04:25 51° ENE 06:07:39 10° SSE
Landsat 7 3.9 06:00:40 10° NNE 06:05:21 81° ESE 06:10:01 10° SSW
Cosmos 2237 Rocket 3.8 06:02:11 10° NNW 06:07:01 28° NE 06:11:48 10° ESE
COSMO-SKYMED 1 4.1 06:04:31 10° SW 06:07:02 16° W 06:08:59 12° WNW
Cosmos 1125 Rocket 3.5 06:03:00 10° NNW 06:08:17 82° WSW 06:13:31 10° SSE
ATLAS 3B R/B 3.4 06:02:10 10° NW 06:10:01 62° NE 06:17:29 10° ESE
Meteor 1-10 Rocket 4.4 06:04:40 10° NNW 06:10:36 87° W 06:16:33 10° S
BREEZE-M DEB (TANK) 4.5 06:09:17 10° SW 06:11:26 31° SSE 06:14:21 10° E
Cosmos 2219 Rocket 2.4 06:08:19 10° NW 06:13:51 56° WSW 06:19:19 10° S
Meteor 1-19 Rocket 4.3 06:10:12 10° NNW 06:15:59 75° W 06:21:54 10° S
Cosmos 2322 Rocket 3.2 06:14:41 10° NW 06:19:28 28° WSW 06:24:14 10° SSW
BREEZE-M DEB (TANK) 3.9 06:04:30 10° W 06:21:18 84° N 06:25:27 10° E
Okean 1-7 Rocket 3.6 06:21:27 10° SSW 06:25:57 74° W 06:30:26 10° N
YAOGAN 11 4.3 06:22:28 10° SSE 06:26:49 76° ENE 06:31:07 10° NNW
IGS 5A 4.4 06:24:01 10° N 06:27:20 25° WNW 06:30:40 10° WSW
Cosmos 1812 Rocket 4.0 06:23:33 10° NNW 06:27:37 41° W 06:31:41 10° SSW
Cosmos 1484 Rocket 4.0 06:26:14 10° NNW 06:28:31 17° WNW 06:30:46 10° WSW
Cosmos 2322 3.8 06:23:21 10° NNW 06:29:02 85° ENE 06:34:43 10° SSE
SJ-12 3.8 06:28:33 10° N 06:32:18 57° WNW 06:36:03 10° SSW
Cosmos 2266 Rocket 4.1 06:26:03 10° SSW 06:32:22 64° WNW 06:38:40 10° N
Cosmos 1437 Rocket 3.0 06:30:36 10° NNW 06:33:49 37° W 06:37:02 10° SSW
Cosmos 1602 Rocket 4.0 06:30:32 10° SSW 06:34:45 42° WNW 06:39:00 10° N
ATLAS 2AS CENTAUR R/B 2.8 06:29:09 10° SW 06:36:12 87° NW 06:43:07 10° NE
